Time,TemperatureF,DewpointF,PressureIn,WindDirection,WindDirectionDegrees,WindSpeedMPH,WindSpeedGustMPH,Humidity,HourlyPrecipIn,Conditions,Clouds,dailyrainin,SoftwareType,DateUTC
2013-08-23 00:00:00,56.5,50.4,29.92,SSE,158,0.0,4.0,80,0.00,,---,0.00,VWS V14.01,2013-08-23 07:00:00,
2013-08-23 00:05:00,56.5,50.8,29.92,SSE,149,0.0,5.0,81,0.00,,---,0.00,VWS V14.01,2013-08-23 07:05:00,
2013-08-23 00:10:00,56.5,50.8,29.92,NW,323,0.0,11.0,81,0.00,,---,0.00,VWS V14.01,2013-08-23 07:10:00,
2013-08-23 00:15:00,56.4,50.7,29.92,SSW,202,0.0,11.0,81,0.00,,---,0.00,VWS V14.01,2013-08-23 07:15:00,
2013-08-23 00:20:00,56.4,50.3,29.92,WNW,302,0.0,11.0,80,0.00,,---,0.00,VWS V14.01,2013-08-23 07:20:00,
2013-08-23 00:25:00,56.4,50.3,29.92,NW,306,0.0,11.0,80,0.00,,---,0.00,VWS V14.01,2013-08-23 07:25:00,
2013-08-23 00:30:00,56.5,50.4,29.92,South,190,0.0,0.0,80,0.00,,---,0.00,VWS V14.01,2013-08-23 07:30:00,
2013-08-23 00:35:00,56.4,50.7,29.92,NNW,332,7.0,13.0,81,0.00,,---,0.00,VWS V14.01,2013-08-23 07:35:00,
2013-08-23 00:40:00,56.3,50.2,29.92,NW,321,5.0,13.0,80,0.00,,---,0.00,VWS V14.01,2013-08-23 07:40:00,
2013-08-23 00:45:00,56.3,49.9,29.92,SSW,209,0.0,13.0,79,0.00,,---,0.00,VWS V14.01,2013-08-23 07:45:00,
2013-08-23 00:50:00,56.3,49.9,29.92,NNE,31,5.0,13.0,79,0.00,,---,0.00,VWS V14.01,2013-08-23 07:50:00,
2013-08-23 00:55:00,56.2,49.8,29.92,NE,55,0.0,13.0,79,0.00,,---,0.00,VWS V14.01,2013-08-23 07:55:00,
2013-08-23 01:00:00,56.3,50.2,29.92,SE,136,0.0,0.0,80,0.00,,---,0.00,VWS V14.01,2013-08-23 08:00:00,
2013-08-23 01:06:00,56.3,50.2,29.92,NE,42,0.0,4.0,80,0.00,,---,0.00,VWS V14.01,2013-08-23 08:06:00,
2013-08-23 01:11:00,56.4,50.3,29.92,SSW,203,0.0,10.0,80,0.00,,---,0.00,VWS V14.01,2013-08-23 08:11:00,
2013-08-23 01:16:00,56.4,50.3,29.92,SSE,156,0.0,10.0,80,0.00,,---,0.00,VWS V14.01,2013-08-23 08:16:00,
2013-08-23 01:21:00,56.4,50.3,29.92,South,178,0.0,10.0,80,0.00,,---,0.00,VWS V14.01,2013-08-23 08:21:00,
2013-08-23 01:26:00,56.3,50.2,29.92,West,260,0.0,10.0,80,0.00,,---,0.00,VWS V14.01,2013-08-23 08:26:00,
2013-08-23 01:30:00,56.3,50.2,29.91,NW,313,3.0,10.0,80,0.00,,---,0.00,VWS V14.01,2013-08-23 08:30:00,
2013-08-23 01:31:00,56.2,50.1,29.91,North,360,5.0,7.0,80,0.00,,---,0.00,VWS V14.01,2013-08-23 08:31:00,
2013-08-23 01:36:00,56.2,49.8,29.91,North,360,7.0,7.0,79,0.00,,---,0.00,VWS V14.01,2013-08-23 08:36:00,
2013-08-23 01:41:00,56.2,49.8,29.91,WSW,248,0.0,7.0,79,0.00,,---,0.00,VWS V14.01,2013-08-23 08:41:00,
2013-08-23 01:46:00,56.3,49.9,29.91,WSW,246,0.0,7.0,79,0.00,,---,0.00,VWS V14.01,2013-08-23 08:46:00,
2013-08-23 01:51:00,56.4,50.0,29.91,WSW,240,0.0,7.0,79,0.00,,---,0.00,VWS V14.01,2013-08-23 08:51:00,
2013-08-23 01:56:00,56.4,50.3,29.91,WSW,240,0.0,7.0,80,0.00,,---,0.00,VWS V14.01,2013-08-23 08:56:00,
2013-08-23 02:00:00,56.4,50.3,29.91,SW,225,0.0,7.0,80,0.00,,---,0.00,VWS V14.01,2013-08-23 09:00:00,
2013-08-23 02:01:00,56.4,50.3,29.91,West,269,0.0,6.0,80,0.00,,---,0.00,VWS V14.01,2013-08-23 09:01:00,
2013-08-23 02:06:00,56.3,49.9,29.91,West,268,0.0,6.0,79,0.00,,---,0.00,VWS V14.01,2013-08-23 09:06:00,
2013-08-23 02:11:00,56.3,49.9,29.91,West,269,5.0,6.0,79,0.00,,---,0.00,VWS V14.01,2013-08-23 09:11:00,
2013-08-23 02:16:00,56.3,49.9,29.91,West,260,0.0,6.0,79,0.00,,---,0.00,VWS V14.01,2013-08-23 09:16:00,
2013-08-23 02:21:00,56.3,49.9,29.91,SW,217,0.0,6.0,79,0.00,,---,0.00,VWS V14.01,2013-08-23 09:21:00,
2013-08-23 02:26:00,56.3,49.9,29.91,SW,217,0.0,6.0,79,0.00,,---,0.00,VWS V14.01,2013-08-23 09:26:00,
2013-08-23 02:30:00,56.3,49.9,29.91,SW,216,0.0,6.0,79,0.00,,---,0.00,VWS V14.01,2013-08-23 09:30:00,
2013-08-23 02:31:00,56.3,49.9,29.91,SSW,211,0.0,0.0,79,0.00,,---,0.00,VWS V14.01,2013-08-23 09:31:00,
2013-08-23 02:36:00,56.3,49.9,29.91,West,275,0.0,6.0,79,0.00,,---,0.00,VWS V14.01,2013-08-23 09:36:00,
2013-08-23 02:41:00,56.2,49.8,29.91,SE,135,0.0,7.0,79,0.00,,---,0.00,VWS V14.01,2013-08-23 09:41:00,
2013-08-23 02:46:00,56.3,49.9,29.91,South,179,0.0,7.0,79,0.00,,---,0.00,VWS V14.01,2013-08-23 09:46:00,
2013-08-23 02:51:00,56.3,49.9,29.91,WNW,284,6.0,7.0,79,0.00,,---,0.00,VWS V14.01,2013-08-23 09:51:00,
2013-08-23 02:56:00,56.3,49.9,29.91,WNW,284,0.0,7.0,79,0.00,,---,0.00,VWS V14.01,2013-08-23 09:56:00,
2013-08-23 03:00:00,56.3,49.9,29.91,WNW,284,0.0,7.0,79,0.00,,---,0.00,VWS V14.01,2013-08-23 10:00:00,
2013-08-23 03:01:00,56.3,49.9,29.91,WNW,284,0.0,0.0,79,0.00,,---,0.00,VWS V14.01,2013-08-23 10:01:00,
2013-08-23 03:06:00,56.4,49.6,29.91,West,281,0.0,0.0,78,0.00,,---,0.00,VWS V14.01,2013-08-23 10:06:00,
2013-08-23 03:11:00,56.4,50.0,29.90,West,280,0.0,0.0,79,0.00,,---,0.00,VWS V14.01,2013-08-23 10:11:00,
2013-08-23 03:16:00,56.5,50.1,29.90,West,279,0.0,5.0,79,0.00,,---,0.00,VWS V14.01,2013-08-23 10:16:00,
2013-08-23 03:21:00,56.3,49.9,29.91,NW,316,0.0,9.0,79,0.00,,---,0.00,VWS V14.01,2013-08-23 10:21:00,
2013-08-23 03:26:00,56.3,49.9,29.90,NW,318,0.0,9.0,79,0.00,,---,0.00,VWS V14.01,2013-08-23 10:26:00,
2013-08-23 03:30:00,56.3,49.9,29.90,NW,318,0.0,9.0,79,0.00,,---,0.00,VWS V14.01,2013-08-23 10:30:00,
2013-08-23 03:31:00,56.3,49.9,29.90,NW,318,0.0,0.0,79,0.00,,---,0.00,VWS V14.01,2013-08-23 10:31:00,
2013-08-23 03:36:00,56.3,49.9,29.90,NW,318,0.0,0.0,79,0.00,,---,0.00,VWS V14.01,2013-08-23 10:36:00,
2013-08-23 03:41:00,56.4,49.6,29.90,NW,318,0.0,0.0,78,0.00,,---,0.00,VWS V14.01,2013-08-23 10:41:00,
2013-08-23 03:46:00,56.3,49.9,29.90,NE,34,4.0,6.0,79,0.00,,---,0.00,VWS V14.01,2013-08-23 10:46:00,
2013-08-23 03:51:00,56.3,49.9,29.90,NNW,329,0.0,6.0,79,0.00,,---,0.00,VWS V14.01,2013-08-23 10:51:00,
2013-08-23 03:56:00,56.3,49.5,29.90,NNW,329,0.0,6.0,78,0.00,,---,0.00,VWS V14.01,2013-08-23 10:56:00,
2013-08-23 04:00:00,56.3,49.5,29.90,NNW,327,0.0,6.0,78,0.00,,---,0.00,VWS V14.01,2013-08-23 11:00:00,
2013-08-23 04:01:00,56.2,49.8,29.90,NW,316,5.0,5.0,79,0.00,,---,0.00,VWS V14.01,2013-08-23 11:01:00,
2013-08-23 04:06:00,56.2,49.4,29.90,North,360,0.0,7.0,78,0.00,,---,0.00,VWS V14.01,2013-08-23 11:06:00,
2013-08-23 04:11:00,56.2,49.4,29.90,North,360,0.0,7.0,78,0.00,,---,0.00,VWS V14.01,2013-08-23 11:11:00,
2013-08-23 04:16:00,56.2,49.4,29.90,SSW,198,0.0,7.0,78,0.00,,---,0.00,VWS V14.01,2013-08-23 11:16:00,
2013-08-23 04:21:00,56.2,49.4,29.90,WSW,252,0.0,7.0,78,0.00,,---,0.00,VWS V14.01,2013-08-23 11:21:00,
2013-08-23 04:26:00,56.0,49.2,29.90,West,264,0.0,7.0,78,0.00,,---,0.00,VWS V14.01,2013-08-23 11:26:00,
2013-08-23 04:30:00,56.0,49.2,29.90,West,265,0.0,7.0,78,0.00,,---,0.00,VWS V14.01,2013-08-23 11:30:00,
2013-08-23 04:31:00,56.0,49.2,29.90,West,268,0.0,2.0,78,0.00,,---,0.00,VWS V14.01,2013-08-23 11:31:00,
2013-08-23 04:36:00,56.0,49.2,29.90,WSW,254,0.0,2.0,78,0.00,,---,0.00,VWS V14.01,2013-08-23 11:36:00,
2013-08-23 04:41:00,55.9,49.2,29.90,NW,317,0.0,7.0,78,0.00,,---,0.00,VWS V14.01,2013-08-23 11:41:00,
2013-08-23 04:46:00,55.8,49.0,29.89,NW,317,0.0,7.0,78,0.00,,---,0.00,VWS V14.01,2013-08-23 11:46:00,
2013-08-23 04:51:00,55.7,49.0,29.89,NNW,344,0.0,7.0,78,0.00,,---,0.00,VWS V14.01,2013-08-23 11:51:00,
2013-08-23 04:56:00,55.6,48.9,29.89,WSW,253,0.0,7.0,78,0.00,,---,0.00,VWS V14.01,2013-08-23 11:56:00,
2013-08-23 05:00:00,55.6,48.9,29.89,NNE,28,0.0,8.0,78,0.00,,---,0.00,VWS V14.01,2013-08-23 12:00:00,
2013-08-23 05:01:00,55.5,48.8,29.89,NW,321,0.0,4.0,78,0.00,,---,0.00,VWS V14.01,2013-08-23 12:01:00,
2013-08-23 05:06:00,55.3,48.9,29.89,North,360,0.0,11.0,79,0.00,,---,0.00,VWS V14.01,2013-08-23 12:06:00,
2013-08-23 05:11:00,55.3,48.9,29.89,NW,315,0.0,11.0,79,0.00,,---,0.00,VWS V14.01,2013-08-23 12:11:00,
2013-08-23 05:16:00,55.3,48.6,29.89,NW,313,0.0,11.0,78,0.00,,---,0.00,VWS V14.01,2013-08-23 12:16:00,
2013-08-23 05:21:00,55.3,48.6,29.89,NW,305,0.0,11.0,78,0.00,,---,0.00,VWS V14.01,2013-08-23 12:21:00,
2013-08-23 05:26:00,55.1,48.7,29.89,NW,317,3.0,11.0,79,0.00,,---,0.00,VWS V14.01,2013-08-23 12:26:00,
2013-08-23 05:30:00,55.1,48.7,29.89,NW,313,6.0,11.0,79,0.00,,---,0.00,VWS V14.01,2013-08-23 12:30:00,
2013-08-23 05:31:00,55.0,48.3,29.89,WNW,283,0.0,7.0,78,0.00,,---,0.00,VWS V14.01,2013-08-23 12:31:00,
2013-08-23 05:37:00,54.9,48.2,29.89,West,281,0.0,7.0,78,0.00,,---,0.00,VWS V14.01,2013-08-23 12:37:00,
2013-08-23 05:42:00,54.8,48.1,29.90,WNW,284,0.0,7.0,78,0.00,,---,0.00,VWS V14.01,2013-08-23 12:42:00,
2013-08-23 05:47:00,54.8,48.1,29.90,SW,227,0.0,7.0,78,0.00,,---,0.00,VWS V14.01,2013-08-23 12:47:00,
2013-08-23 05:52:00,54.6,47.9,29.90,West,265,4.0,9.0,78,0.00,,---,0.00,VWS V14.01,2013-08-23 12:52:00,
2013-08-23 05:57:00,54.4,47.7,29.90,NNW,337,0.0,9.0,78,0.00,,---,0.00,VWS V14.01,2013-08-23 12:57:00,
2013-08-23 06:00:00,54.4,47.7,29.90,NW,315,0.0,9.0,78,0.00,,---,0.00,VWS V14.01,2013-08-23 13:00:00,
2013-08-23 06:02:00,54.4,47.3,29.90,North,9,0.0,5.0,77,0.00,,---,0.00,VWS V14.01,2013-08-23 13:02:00,
2013-08-23 06:07:00,54.4,47.3,29.90,ENE,68,0.0,5.0,77,0.00,,---,0.00,VWS V14.01,2013-08-23 13:07:00,
2013-08-23 06:12:00,54.5,47.1,29.90,ESE,109,0.0,5.0,76,0.00,,---,0.00,VWS V14.01,2013-08-23 13:12:00,
2013-08-23 06:17:00,54.6,47.2,29.89,WSW,256,0.0,5.0,76,0.00,,---,0.00,VWS V14.01,2013-08-23 13:17:00,
2013-08-23 06:22:00,54.5,47.1,29.89,WNW,286,5.0,8.0,76,0.00,,---,0.00,VWS V14.01,2013-08-23 13:22:00,
2013-08-23 06:27:00,54.5,46.8,29.90,West,279,0.0,8.0,75,0.00,,---,0.00,VWS V14.01,2013-08-23 13:27:00,
2013-08-23 06:30:00,54.6,46.8,29.90,West,278,0.0,8.0,75,0.00,,---,0.00,VWS V14.01,2013-08-23 13:30:00,
2013-08-23 06:32:00,54.6,46.8,29.90,West,265,3.0,3.0,75,0.00,,---,0.00,VWS V14.01,2013-08-23 13:32:00,
2013-08-23 06:37:00,54.6,46.8,29.90,SW,232,0.0,3.0,75,0.00,,---,0.00,VWS V14.01,2013-08-23 13:37:00,
2013-08-23 06:42:00,54.5,46.8,29.90,SE,145,0.0,5.0,75,0.00,,---,0.00,VWS V14.01,2013-08-23 13:42:00,
2013-08-23 06:47:00,54.4,46.7,29.90,NE,40,5.0,10.0,75,0.00,,---,0.00,VWS V14.01,2013-08-23 13:47:00,
2013-08-23 06:52:00,54.3,46.6,29.90,West,280,0.0,10.0,75,0.00,,---,0.00,VWS V14.01,2013-08-23 13:52:00,
2013-08-23 06:57:00,54.2,46.5,29.90,WSW,254,3.0,21.0,75,0.00,,---,0.00,VWS V14.01,2013-08-23 13:57:00,
2013-08-23 07:00:00,54.1,46.4,29.90,WNW,283,2.0,21.0,75,0.00,,---,0.00,VWS V14.01,2013-08-23 14:00:00,
2013-08-23 07:02:00,54.1,46.0,29.90,West,279,0.0,3.0,74,0.00,,---,0.00,VWS V14.01,2013-08-23 14:02:00,
2013-08-23 07:07:00,54.0,45.9,29.90,West,280,5.0,9.0,74,0.00,,---,0.00,VWS V14.01,2013-08-23 14:07:00,
2013-08-23 07:12:00,54.0,45.9,29.90,ENE,64,2.0,11.0,74,0.00,,---,0.00,VWS V14.01,2013-08-23 14:12:00,
2013-08-23 07:17:00,54.0,45.5,29.90,West,278,2.0,11.0,73,0.00,,---,0.00,VWS V14.01,2013-08-23 14:17:00,
2013-08-23 07:22:00,53.9,45.8,29.90,WSW,253,0.0,11.0,74,0.00,,---,0.00,VWS V14.01,2013-08-23 14:22:00,
2013-08-23 07:27:00,53.8,45.7,29.90,NW,318,6.0,14.0,74,0.00,,---,0.00,VWS V14.01,2013-08-23 14:27:00,
2013-08-23 07:30:00,53.8,45.7,29.90,NW,305,4.0,14.0,74,0.00,,---,0.00,VWS V14.01,2013-08-23 14:30:00,
2013-08-23 07:32:00,53.8,45.4,29.90,NW,308,14.0,14.0,73,0.00,,---,0.00,VWS V14.01,2013-08-23 14:32:00,
2013-08-23 07:37:00,53.7,45.6,29.90,SW,232,0.0,16.0,74,0.00,,---,0.00,VWS V14.01,2013-08-23 14:37:00,
2013-08-23 07:42:00,53.8,45.4,29.90,NW,306,6.0,16.0,73,0.00,,---,0.00,VWS V14.01,2013-08-23 14:42:00,
2013-08-23 07:47:00,53.9,45.5,29.90,North,349,7.0,16.0,73,0.00,,---,0.00,VWS V14.01,2013-08-23 14:47:00,
2013-08-23 07:52:00,53.8,45.4,29.90,SW,217,3.0,16.0,73,0.00,,---,0.00,VWS V14.01,2013-08-23 14:52:00,
2013-08-23 07:57:00,53.9,45.5,29.90,SSE,157,3.0,16.0,73,0.00,,---,0.00,VWS V14.01,2013-08-23 14:57:00,
2013-08-23 08:00:00,53.9,45.5,29.90,NNE,30,0.0,16.0,73,0.00,,---,0.00,VWS V14.01,2013-08-23 15:00:00,
2013-08-23 08:02:00,53.8,45.4,29.91,South,183,0.0,15.0,73,0.00,,---,0.00,VWS V14.01,2013-08-23 15:02:00,
2013-08-23 08:07:00,53.8,45.4,29.91,NW,308,9.0,15.0,73,0.00,,---,0.00,VWS V14.01,2013-08-23 15:07:00,
2013-08-23 08:12:00,53.9,45.5,29.91,NW,315,0.0,15.0,73,0.00,,---,0.00,VWS V14.01,2013-08-23 15:12:00,
2013-08-23 08:17:00,53.9,45.5,29.90,North,360,7.0,15.0,73,0.00,,---,0.00,VWS V14.01,2013-08-23 15:17:00,
2013-08-23 08:22:00,53.9,45.5,29.91,ESE,115,0.0,15.0,73,0.00,,---,0.00,VWS V14.01,2013-08-23 15:22:00,
2013-08-23 08:27:00,53.9,45.5,29.91,West,280,1.0,15.0,73,0.00,,---,0.00,VWS V14.01,2013-08-23 15:27:00,
2013-08-23 08:30:00,53.9,45.5,29.91,SSW,199,0.0,15.0,73,0.00,,---,0.00,VWS V14.01,2013-08-23 15:30:00,
2013-08-23 08:32:00,54.1,45.3,29.91,SSW,196,0.0,2.0,72,0.00,,---,0.00,VWS V14.01,2013-08-23 15:32:00,
2013-08-23 08:37:00,54.2,45.4,29.91,South,172,3.0,6.0,72,0.00,,---,0.00,VWS V14.01,2013-08-23 15:37:00,
2013-08-23 08:42:00,54.3,45.5,29.91,NNW,346,1.0,11.0,72,0.00,,---,0.00,VWS V14.01,2013-08-23 15:42:00,
2013-08-23 08:47:00,54.3,45.5,29.91,SSW,213,0.0,11.0,72,0.00,,---,0.00,VWS V14.01,2013-08-23 15:47:00,
2013-08-23 08:52:00,54.5,45.7,29.91,SSW,212,0.0,11.0,72,0.00,,---,0.00,VWS V14.01,2013-08-23 15:52:00,
2013-08-23 08:57:00,54.6,45.8,29.91,South,173,0.0,11.0,72,0.00,,---,0.00,VWS V14.01,2013-08-23 15:57:00,
2013-08-23 09:00:00,54.6,45.8,29.91,South,176,0.0,11.0,72,0.00,,---,0.00,VWS V14.01,2013-08-23 16:00:00,
2013-08-23 09:02:00,54.6,45.8,29.91,NNW,345,0.0,9.0,72,0.00,,---,0.00,VWS V14.01,2013-08-23 16:02:00,
2013-08-23 09:07:00,54.6,46.1,29.91,NNW,334,0.0,9.0,73,0.00,,---,0.00,VWS V14.01,2013-08-23 16:07:00,
2013-08-23 09:12:00,54.5,46.0,29.91,NNW,345,3.0,9.0,73,0.00,,---,0.00,VWS V14.01,2013-08-23 16:12:00,
2013-08-23 09:17:00,54.6,46.1,29.91,SSW,211,0.0,9.0,73,0.00,,---,0.00,VWS V14.01,2013-08-23 16:17:00,
2013-08-23 09:22:00,54.6,46.1,29.91,WSW,252,0.0,9.0,73,0.00,,---,0.00,VWS V14.01,2013-08-23 16:22:00,
2013-08-23 09:27:00,54.8,46.3,29.92,WSW,251,0.0,9.0,73,0.00,,---,0.00,VWS V14.01,2013-08-23 16:27:00,
2013-08-23 09:30:00,54.9,46.4,29.92,WSW,250,0.0,9.0,73,0.00,,---,0.00,VWS V14.01,2013-08-23 16:30:00,
2013-08-23 09:32:00,54.9,46.8,29.91,SW,223,0.0,5.0,74,0.00,,---,0.00,VWS V14.01,2013-08-23 16:32:00,
2013-08-23 09:37:00,55.0,47.2,29.92,West,262,0.0,5.0,75,0.00,,---,0.00,VWS V14.01,2013-08-23 16:37:00,
2013-08-23 09:42:00,55.3,47.5,29.92,North,360,8.0,10.0,75,0.00,,---,0.00,VWS V14.01,2013-08-23 16:42:00,
2013-08-23 09:47:00,55.1,48.0,29.92,West,269,0.0,10.0,77,0.00,,---,0.00,VWS V14.01,2013-08-23 16:47:00,
2013-08-23 09:52:00,55.3,47.9,29.92,West,267,0.0,10.0,76,0.00,,---,0.00,VWS V14.01,2013-08-23 16:52:00,
2013-08-23 09:58:00,55.3,47.9,29.92,WNW,287,0.0,11.0,76,0.00,,---,0.00,VWS V14.01,2013-08-23 16:58:00,
2013-08-23 10:00:00,55.4,48.0,29.92,WNW,289,0.0,11.0,76,0.00,,---,0.00,VWS V14.01,2013-08-23 17:00:00,
2013-08-23 10:03:00,55.5,48.1,29.92,SSW,199,0.0,4.0,76,0.00,,---,0.00,VWS V14.01,2013-08-23 17:03:00,
2013-08-23 10:08:00,55.6,48.5,29.92,WSW,240,5.0,6.0,77,0.00,,---,0.00,VWS V14.01,2013-08-23 17:08:00,
2013-08-23 10:13:00,55.5,49.1,29.92,SSW,192,0.0,7.0,79,0.00,,---,0.00,VWS V14.01,2013-08-23 17:13:00,
2013-08-23 10:18:00,55.8,49.0,29.92,SSW,196,0.0,7.0,78,0.00,,---,0.00,VWS V14.01,2013-08-23 17:18:00,
2013-08-23 10:23:00,55.8,49.7,29.92,West,273,0.0,9.0,80,0.00,,---,0.00,VWS V14.01,2013-08-23 17:23:00,
2013-08-23 10:28:00,55.7,49.6,29.92,NNW,341,0.0,9.0,80,0.00,,---,0.00,VWS V14.01,2013-08-23 17:28:00,
2013-08-23 10:30:00,55.7,49.6,29.92,NNW,341,0.0,9.0,80,0.00,,---,0.00,VWS V14.01,2013-08-23 17:30:00,
2013-08-23 10:33:00,56.0,49.6,29.92,SW,225,0.0,0.0,79,0.00,,---,0.00,VWS V14.01,2013-08-23 17:33:00,
2013-08-23 10:38:00,56.2,50.1,29.92,SSW,204,0.0,1.0,80,0.00,,---,0.00,VWS V14.01,2013-08-23 17:38:00,
2013-08-23 10:43:00,56.5,50.4,29.92,SSW,203,0.0,1.0,80,0.00,,---,0.00,VWS V14.01,2013-08-23 17:43:00,
2013-08-23 10:48:00,56.6,50.8,29.92,South,180,0.0,4.0,81,0.00,,---,0.00,VWS V14.01,2013-08-23 17:48:00,
2013-08-23 10:53:00,56.8,51.0,29.92,SSE,153,2.0,5.0,81,0.00,,---,0.00,VWS V14.01,2013-08-23 17:53:00,
2013-08-23 10:58:00,56.8,51.0,29.92,SE,145,0.0,5.0,81,0.00,,---,0.00,VWS V14.01,2013-08-23 17:58:00,
2013-08-23 11:00:00,56.8,51.0,29.92,SE,145,0.0,5.0,81,0.00,,---,0.00,VWS V14.01,2013-08-23 18:00:00,
2013-08-23 11:03:00,57.0,51.6,29.92,SE,146,0.0,5.0,82,0.00,,---,0.00,VWS V14.01,2013-08-23 18:03:00,
2013-08-23 11:08:00,56.8,51.7,29.92,WNW,303,0.0,12.0,83,0.00,,---,0.00,VWS V14.01,2013-08-23 18:08:00,
2013-08-23 11:13:00,56.9,51.5,29.91,South,171,6.0,12.0,82,0.00,,---,0.00,VWS V14.01,2013-08-23 18:13:00,
2013-08-23 11:18:00,56.8,51.7,29.91,NNE,28,0.0,12.0,83,0.00,,---,0.00,VWS V14.01,2013-08-23 18:18:00,
2013-08-23 11:23:00,57.1,51.7,29.91,ESE,103,0.0,12.0,82,0.00,,---,0.00,VWS V14.01,2013-08-23 18:23:00,
2013-08-23 11:28:00,56.9,52.1,29.91,NW,313,0.0,12.0,84,0.00,,---,0.00,VWS V14.01,2013-08-23 18:28:00,
2013-08-23 11:30:00,56.8,52.0,29.91,SW,230,0.0,12.0,84,0.00,,---,0.00,VWS V14.01,2013-08-23 18:30:00,
2013-08-23 11:33:00,56.9,51.5,29.92,SW,229,0.0,5.0,82,0.00,,---,0.00,VWS V14.01,2013-08-23 18:33:00,
2013-08-23 11:38:00,57.1,52.0,29.91,SE,124,3.0,8.0,83,0.00,,---,0.00,VWS V14.01,2013-08-23 18:38:00,
2013-08-23 11:43:00,57.4,52.3,29.91,SSE,152,0.0,8.0,83,0.00,,---,0.00,VWS V14.01,2013-08-23 18:43:00,
2013-08-23 11:48:00,57.6,52.8,29.91,SSE,160,0.0,8.0,84,0.00,,---,0.00,VWS V14.01,2013-08-23 18:48:00,
2013-08-23 11:53:00,57.6,52.8,29.91,WSW,257,0.0,8.0,84,0.00,,---,0.00,VWS V14.01,2013-08-23 18:53:00,
2013-08-23 11:58:00,57.2,52.4,29.91,WSW,246,2.0,12.0,84,0.00,,---,0.00,VWS V14.01,2013-08-23 18:58:00,
2013-08-23 12:00:00,57.2,52.4,29.91,West,266,0.0,12.0,84,0.00,,---,0.00,VWS V14.01,2013-08-23 19:00:00,
2013-08-23 12:03:00,57.3,52.5,29.91,North,360,0.0,8.0,84,0.00,,---,0.00,VWS V14.01,2013-08-23 19:03:00,
2013-08-23 12:08:00,57.3,52.5,29.90,NW,313,9.0,13.0,84,0.00,,---,0.00,VWS V14.01,2013-08-23 19:08:00,
2013-08-23 12:13:00,57.5,52.7,29.90,NNW,331,3.0,16.0,84,0.00,,---,0.00,VWS V14.01,2013-08-23 19:13:00,
2013-08-23 12:18:00,57.3,52.5,29.90,WSW,244,4.0,16.0,84,0.00,,---,0.00,VWS V14.01,2013-08-23 19:18:00,
2013-08-23 12:23:00,57.4,52.6,29.90,NW,315,9.0,16.0,84,0.00,,---,0.00,VWS V14.01,2013-08-23 19:23:00,
2013-08-23 12:28:00,57.1,52.3,29.90,NW,317,19.0,19.0,84,0.00,,---,0.00,VWS V14.01,2013-08-23 19:28:00,
2013-08-23 12:30:00,57.1,52.3,29.90,NNW,329,12.0,19.0,84,0.00,,---,0.00,VWS V14.01,2013-08-23 19:30:00,
2013-08-23 12:33:00,56.7,51.6,29.90,NNW,347,2.0,18.0,83,0.00,,---,0.00,VWS V14.01,2013-08-23 19:33:00,
2013-08-23 12:38:00,57.3,52.2,29.90,WNW,282,4.0,18.0,83,0.00,,---,0.00,VWS V14.01,2013-08-23 19:38:00,
2013-08-23 12:43:00,57.4,52.6,29.89,NNW,330,16.0,18.0,84,0.00,,---,0.00,VWS V14.01,2013-08-23 19:43:00,
2013-08-23 12:48:00,56.5,51.7,29.89,WNW,284,11.0,20.0,84,0.00,,---,0.00,VWS V14.01,2013-08-23 19:48:00,
2013-08-23 12:53:00,56.6,51.5,29.90,NW,314,3.0,20.0,83,0.00,,---,0.00,VWS V14.01,2013-08-23 19:53:00,
2013-08-23 12:58:00,56.5,51.4,29.89,NW,319,8.0,21.0,83,0.00,,---,0.00,VWS V14.01,2013-08-23 19:58:00,
2013-08-23 13:00:00,56.5,51.4,29.89,NW,324,4.0,21.0,83,0.00,,---,0.00,VWS V14.01,2013-08-23 20:00:00,
2013-08-23 13:03:00,56.8,52.0,29.89,North,360,12.0,21.0,84,0.00,,---,0.00,VWS V14.01,2013-08-23 20:03:00,
2013-08-23 13:08:00,56.4,51.3,29.88,NNW,331,12.0,21.0,83,0.00,,---,0.00,VWS V14.01,2013-08-23 20:08:00,
2013-08-23 13:13:00,56.8,51.7,29.88,NNW,340,5.0,21.0,83,0.00,,---,0.00,VWS V14.01,2013-08-23 20:13:00,
2013-08-23 13:18:00,56.9,52.1,29.88,NW,321,15.0,21.0,84,0.00,,---,0.00,VWS V14.01,2013-08-23 20:18:00,
2013-08-23 13:23:00,56.4,51.3,29.88,NW,318,3.0,24.0,83,0.00,,---,0.00,VWS V14.01,2013-08-23 20:23:00,
2013-08-23 13:28:00,56.2,51.1,29.88,NW,324,14.0,27.0,83,0.00,,---,0.00,VWS V14.01,2013-08-23 20:28:00,
2013-08-23 13:30:00,56.2,51.1,29.88,NW,319,16.0,27.0,83,0.00,,---,0.00,VWS V14.01,2013-08-23 20:30:00,
2013-08-23 13:33:00,57.0,51.9,29.87,NW,318,7.0,22.0,83,0.00,,---,0.00,VWS V14.01,2013-08-23 20:33:00,
2013-08-23 13:38:00,57.3,52.5,29.87,NW,306,7.0,22.0,84,0.00,,---,0.00,VWS V14.01,2013-08-23 20:38:00,
2013-08-23 13:43:00,57.3,52.5,29.87,NW,306,15.0,25.0,84,0.00,,---,0.00,VWS V14.01,2013-08-23 20:43:00,
2013-08-23 13:48:00,56.9,52.1,29.87,North,360,14.0,25.0,84,0.00,,---,0.00,VWS V14.01,2013-08-23 20:48:00,
2013-08-23 13:53:00,56.7,51.9,29.87,NNW,330,14.0,25.0,84,0.00,,---,0.00,VWS V14.01,2013-08-23 20:53:00,
2013-08-23 13:58:00,56.4,51.3,29.87,North,360,10.0,25.0,83,0.00,,---,0.00,VWS V14.01,2013-08-23 20:58:00,
2013-08-23 14:00:00,56.4,51.3,29.87,North,360,10.0,25.0,83,0.00,,---,0.00,VWS V14.01,2013-08-23 21:00:00,
2013-08-23 14:03:00,56.1,51.0,29.87,NW,321,18.0,27.0,83,0.00,,---,0.00,VWS V14.01,2013-08-23 21:03:00,
2013-08-23 14:08:00,56.0,50.6,29.87,NW,318,16.0,27.0,82,0.00,,---,0.00,VWS V14.01,2013-08-23 21:08:00,
2013-08-23 14:13:00,55.7,50.0,29.86,NW,313,16.0,29.0,81,0.00,,---,0.00,VWS V14.01,2013-08-23 21:13:00,
2013-08-23 14:18:00,55.8,50.1,29.87,NNW,347,15.0,29.0,81,0.00,,---,0.00,VWS V14.01,2013-08-23 21:18:00,
2013-08-23 14:23:00,56.0,50.3,29.87,North,360,20.0,29.0,81,0.00,,---,0.00,VWS V14.01,2013-08-23 21:23:00,
2013-08-23 14:29:00,56.0,50.3,29.86,NW,325,22.0,23.0,81,0.00,,---,0.00,VWS V14.01,2013-08-23 21:29:00,
2013-08-23 14:30:00,56.0,50.3,29.86,WNW,296,18.0,29.0,81,0.00,,---,0.00,VWS V14.01,2013-08-23 21:30:00,
2013-08-23 14:34:00,56.0,50.3,29.86,WNW,303,17.0,28.0,81,0.00,,---,0.00,VWS V14.01,2013-08-23 21:34:00,
2013-08-23 14:39:00,56.0,49.9,29.86,WNW,283,19.0,28.0,80,0.00,,---,0.00,VWS V14.01,2013-08-23 21:39:00,
2013-08-23 14:44:00,55.8,50.1,29.86,WNW,302,16.0,28.0,81,0.00,,---,0.00,VWS V14.01,2013-08-23 21:44:00,
2013-08-23 14:49:00,55.6,49.5,29.85,NW,320,20.0,28.0,80,0.00,,---,0.00,VWS V14.01,2013-08-23 21:49:00,
2013-08-23 14:54:00,56.0,49.9,29.86,NW,313,6.0,28.0,80,0.00,,---,0.00,VWS V14.01,2013-08-23 21:54:00,
2013-08-23 14:59:00,56.0,50.3,29.85,NW,318,21.0,23.0,81,0.00,,---,0.00,VWS V14.01,2013-08-23 21:59:00,
2013-08-23 15:00:00,56.0,50.3,29.85,North,350,21.0,28.0,81,0.00,,---,0.00,VWS V14.01,2013-08-23 22:00:00,
2013-08-23 15:04:00,56.1,49.7,29.85,NW,317,22.0,28.0,79,0.00,,---,0.00,VWS V14.01,2013-08-23 22:04:00,
2013-08-23 15:09:00,56.3,50.5,29.85,North,360,21.0,28.0,81,0.00,,---,0.00,VWS V14.01,2013-08-23 22:09:00,
2013-08-23 15:14:00,56.2,50.5,29.84,NW,320,21.0,28.0,81,0.00,,---,0.00,VWS V14.01,2013-08-23 22:14:00,
2013-08-23 15:19:00,56.4,50.7,29.84,NW,311,27.0,28.0,81,0.00,,---,0.00,VWS V14.01,2013-08-23 22:19:00,
2013-08-23 15:24:00,56.4,51.0,29.84,NNW,327,24.0,28.0,82,0.00,,---,0.00,VWS V14.01,2013-08-23 22:24:00,
2013-08-23 15:29:00,56.3,50.5,29.84,NW,323,20.0,23.0,81,0.00,,---,0.00,VWS V14.01,2013-08-23 22:29:00,
2013-08-23 15:30:00,56.4,50.7,29.84,NW,306,16.0,28.0,81,0.00,,---,0.00,VWS V14.01,2013-08-23 22:30:00,
2013-08-23 15:34:00,56.1,50.4,29.84,NNW,333,25.0,31.0,81,0.00,,---,0.00,VWS V14.01,2013-08-23 22:34:00,
2013-08-23 15:39:00,55.6,49.2,29.84,NW,305,24.0,31.0,79,0.00,,---,0.00,VWS V14.01,2013-08-23 22:39:00,
2013-08-23 15:44:00,55.6,48.9,29.84,WNW,287,17.0,31.0,78,0.00,,---,0.00,VWS V14.01,2013-08-23 22:44:00,
2013-08-23 15:49:00,55.8,49.0,29.83,NW,318,24.0,31.0,78,0.00,,---,0.00,VWS V14.01,2013-08-23 22:49:00,
2013-08-23 15:54:00,55.6,48.9,29.83,NNW,333,20.0,31.0,78,0.00,,---,0.00,VWS V14.01,2013-08-23 22:54:00,
2013-08-23 15:59:00,55.7,49.0,29.83,North,360,11.0,22.0,78,0.00,,---,0.00,VWS V14.01,2013-08-23 22:59:00,
2013-08-23 16:00:00,55.7,49.0,29.83,NW,322,19.0,31.0,78,0.00,,---,0.00,VWS V14.01,2013-08-23 23:00:00,
2013-08-23 16:04:00,55.8,49.4,29.83,NW,306,18.0,28.0,79,0.00,,---,0.00,VWS V14.01,2013-08-23 23:04:00,
2013-08-23 16:09:00,55.6,49.2,29.83,NW,313,19.0,28.0,79,0.00,,---,0.00,VWS V14.01,2013-08-23 23:09:00,
2013-08-23 16:14:00,55.5,48.4,29.83,NW,321,19.0,28.0,77,0.00,,---,0.00,VWS V14.01,2013-08-23 23:14:00,
2013-08-23 16:19:00,55.6,48.9,29.83,NNW,334,16.0,28.0,78,0.00,,---,0.00,VWS V14.01,2013-08-23 23:19:00,
2013-08-23 16:24:00,55.7,49.0,29.83,NNW,330,25.0,28.0,78,0.00,,---,0.00,VWS V14.01,2013-08-23 23:24:00,
2013-08-23 16:29:00,55.7,49.0,29.83,NNW,344,13.0,19.0,78,0.00,,---,0.00,VWS V14.01,2013-08-23 23:29:00,
2013-08-23 16:30:00,55.7,49.0,29.83,NW,317,16.0,28.0,78,0.00,,---,0.00,VWS V14.01,2013-08-23 23:30:00,
2013-08-23 16:34:00,55.5,48.8,29.82,NW,319,20.0,26.0,78,0.00,,---,0.00,VWS V14.01,2013-08-23 23:34:00,
2013-08-23 16:39:00,55.3,48.6,29.83,NW,313,17.0,29.0,78,0.00,,---,0.00,VWS V14.01,2013-08-23 23:39:00,
2013-08-23 16:44:00,55.1,47.7,29.82,NNW,331,18.0,29.0,76,0.00,,---,0.00,VWS V14.01,2013-08-23 23:44:00,
2013-08-23 16:49:00,55.2,47.8,29.83,NW,313,20.0,29.0,76,0.00,,---,0.00,VWS V14.01,2013-08-23 23:49:00,
2013-08-23 16:54:00,55.3,47.9,29.82,NW,323,18.0,29.0,76,0.00,,---,0.00,VWS V14.01,2013-08-23 23:54:00,
2013-08-23 16:59:00,55.4,48.0,29.82,NNW,336,20.0,22.0,76,0.00,,---,0.00,VWS V14.01,2013-08-23 23:59:00,
2013-08-23 17:00:00,55.4,48.0,29.82,NW,317,16.0,29.0,76,0.00,,---,0.00,VWS V14.01,2013-08-24 00:00:00,
2013-08-23 17:04:00,55.3,47.5,29.82,NW,323,20.0,25.0,75,0.00,,---,0.00,VWS V14.01,2013-08-24 00:04:00,
2013-08-23 17:09:00,55.2,47.4,29.82,NNW,340,15.0,28.0,75,0.00,,---,0.00,VWS V14.01,2013-08-24 00:09:00,
2013-08-23 17:14:00,55.2,47.4,29.82,NW,313,17.0,28.0,75,0.00,,---,0.00,VWS V14.01,2013-08-24 00:14:00,
2013-08-23 17:19:00,55.3,47.2,29.82,NW,325,19.0,28.0,74,0.00,,---,0.00,VWS V14.01,2013-08-24 00:19:00,
2013-08-23 17:24:00,55.1,47.0,29.82,NW,323,24.0,28.0,74,0.00,,---,0.00,VWS V14.01,2013-08-24 00:24:00,
2013-08-23 17:29:00,55.3,47.2,29.82,NW,318,21.0,24.0,74,0.00,,---,0.00,VWS V14.01,2013-08-24 00:29:00,
2013-08-23 17:30:00,55.3,46.8,29.82,NNW,327,15.0,28.0,73,0.00,,---,0.00,VWS V14.01,2013-08-24 00:30:00,
2013-08-23 17:34:00,55.3,47.2,29.82,NW,315,21.0,26.0,74,0.00,,---,0.00,VWS V14.01,2013-08-24 00:34:00,
2013-08-23 17:39:00,55.3,47.2,29.82,NW,319,18.0,27.0,74,0.00,,---,0.00,VWS V14.01,2013-08-24 00:39:00,
2013-08-23 17:44:00,55.3,47.2,29.82,NW,313,15.0,27.0,74,0.00,,---,0.00,VWS V14.01,2013-08-24 00:44:00,
2013-08-23 17:49:00,55.5,47.0,29.82,NNW,330,20.0,27.0,73,0.00,,---,0.00,VWS V14.01,2013-08-24 00:49:00,
2013-08-23 17:54:00,55.6,47.5,29.82,NW,323,20.0,27.0,74,0.00,,---,0.00,VWS V14.01,2013-08-24 00:54:00,
2013-08-23 17:59:00,55.6,47.5,29.82,NW,314,16.0,24.0,74,0.00,,---,0.00,VWS V14.01,2013-08-24 00:59:00,
2013-08-23 18:00:00,55.6,47.5,29.82,NNW,333,19.0,27.0,74,0.00,,---,0.00,VWS V14.01,2013-08-24 01:00:00,
2013-08-23 18:04:00,55.7,47.5,29.82,NNW,329,9.0,24.0,74,0.00,,---,0.00,VWS V14.01,2013-08-24 01:04:00,
2013-08-23 18:09:00,55.7,47.5,29.81,NW,313,13.0,26.0,74,0.00,,---,0.00,VWS V14.01,2013-08-24 01:09:00,
2013-08-23 18:14:00,55.6,47.8,29.81,NNW,331,19.0,27.0,75,0.00,,---,0.00,VWS V14.01,2013-08-24 01:14:00,
2013-08-23 18:19:00,55.7,47.5,29.81,NW,318,14.0,27.0,74,0.00,,---,0.00,VWS V14.01,2013-08-24 01:19:00,
2013-08-23 18:24:00,55.9,48.1,29.81,NW,318,19.0,27.0,75,0.00,,---,0.00,VWS V14.01,2013-08-24 01:24:00,
2013-08-23 18:29:00,56.0,48.5,29.81,NW,317,13.0,25.0,76,0.00,,---,0.00,VWS V14.01,2013-08-24 01:29:00,
2013-08-23 18:30:00,56.0,48.5,29.81,North,360,20.0,27.0,76,0.00,,---,0.00,VWS V14.01,2013-08-24 01:30:00,
2013-08-23 18:34:00,56.1,49.0,29.80,NW,323,21.0,25.0,77,0.00,,---,0.00,VWS V14.01,2013-08-24 01:34:00,
2013-08-23 18:40:00,56.1,49.0,29.80,NW,318,22.0,27.0,77,0.00,,---,0.00,VWS V14.01,2013-08-24 01:40:00,
2013-08-23 18:45:00,56.1,48.7,29.80,NW,311,12.0,27.0,76,0.00,,---,0.00,VWS V14.01,2013-08-24 01:45:00,
2013-08-23 18:50:00,56.2,48.8,29.80,NW,321,20.0,27.0,76,0.00,,---,0.00,VWS V14.01,2013-08-24 01:50:00,
2013-08-23 18:55:00,56.2,48.8,29.80,NW,324,17.0,27.0,76,0.00,,---,0.00,VWS V14.01,2013-08-24 01:55:00,
2013-08-23 19:00:00,56.1,48.7,29.80,NW,310,15.0,20.0,76,0.00,,---,0.00,VWS V14.01,2013-08-24 02:00:00,
2013-08-23 19:05:00,56.2,48.8,29.80,NW,319,15.0,23.0,76,0.00,,---,0.00,VWS V14.01,2013-08-24 02:05:00,
2013-08-23 19:10:00,56.1,48.7,29.80,NW,319,12.0,25.0,76,0.00,,---,0.00,VWS V14.01,2013-08-24 02:10:00,
2013-08-23 19:15:00,56.1,49.0,29.80,NNW,333,16.0,26.0,77,0.00,,---,0.00,VWS V14.01,2013-08-24 02:15:00,
2013-08-23 19:20:00,56.1,48.7,29.79,West,276,22.0,26.0,76,0.00,,---,0.00,VWS V14.01,2013-08-24 02:20:00,
2013-08-23 19:25:00,56.0,48.5,29.79,NW,318,26.0,27.0,76,0.00,,---,0.00,VWS V14.01,2013-08-24 02:25:00,
2013-08-23 19:30:00,56.0,48.5,29.80,NW,324,13.0,23.0,76,0.00,,---,0.00,VWS V14.01,2013-08-24 02:30:00,
2013-08-23 19:35:00,56.0,48.5,29.79,NNW,328,23.0,27.0,76,0.00,,---,0.00,VWS V14.01,2013-08-24 02:35:00,
2013-08-23 19:40:00,55.9,48.5,29.79,NNW,344,22.0,27.0,76,0.00,,---,0.00,VWS V14.01,2013-08-24 02:40:00,
2013-08-23 19:45:00,55.9,48.5,29.79,NW,307,18.0,28.0,76,0.00,,---,0.00,VWS V14.01,2013-08-24 02:45:00,
2013-08-23 19:50:00,55.8,48.0,29.80,North,360,22.0,28.0,75,0.00,,---,0.00,VWS V14.01,2013-08-24 02:50:00,
2013-08-23 19:55:00,55.7,47.9,29.79,North,355,20.0,28.0,75,0.00,,---,0.00,VWS V14.01,2013-08-24 02:55:00,
2013-08-23 20:00:00,55.6,47.8,29.79,NW,325,17.0,25.0,75,0.00,,---,0.00,VWS V14.01,2013-08-24 03:00:00,
2013-08-23 20:05:00,55.6,47.5,29.79,NW,321,17.0,27.0,74,0.00,,---,0.00,VWS V14.01,2013-08-24 03:05:00,
2013-08-23 20:10:00,55.5,47.4,29.80,NW,318,18.0,28.0,74,0.00,,---,0.00,VWS V14.01,2013-08-24 03:10:00,
2013-08-23 20:15:00,55.5,47.4,29.79,NNW,328,21.0,28.0,74,0.00,,---,0.00,VWS V14.01,2013-08-24 03:15:00,
2013-08-23 20:20:00,55.5,47.0,29.79,NW,314,17.0,28.0,73,0.00,,---,0.00,VWS V14.01,2013-08-24 03:20:00,
2013-08-23 20:25:00,55.5,47.0,29.80,NW,321,20.0,28.0,73,0.00,,---,0.00,VWS V14.01,2013-08-24 03:25:00,
2013-08-23 20:30:00,55.5,47.0,29.79,NNW,331,21.0,27.0,73,0.00,,---,0.00,VWS V14.01,2013-08-24 03:30:00,
2013-08-23 20:35:00,55.5,47.0,29.80,North,355,15.0,29.0,73,0.00,,---,0.00,VWS V14.01,2013-08-24 03:35:00,
2013-08-23 20:40:00,55.6,47.1,29.80,North,355,13.0,29.0,73,0.00,,---,0.00,VWS V14.01,2013-08-24 03:40:00,
2013-08-23 20:45:00,55.6,47.1,29.80,NW,323,19.0,29.0,73,0.00,,---,0.00,VWS V14.01,2013-08-24 03:45:00,
2013-08-23 20:50:00,55.6,47.1,29.80,North,360,16.0,29.0,73,0.00,,---,0.00,VWS V14.01,2013-08-24 03:50:00,
2013-08-23 20:55:00,55.6,47.1,29.80,NW,314,19.0,29.0,73,0.00,,---,0.00,VWS V14.01,2013-08-24 03:55:00,
2013-08-23 21:00:00,55.6,47.1,29.80,NNW,337,17.0,22.0,73,0.00,,---,0.00,VWS V14.01,2013-08-24 04:00:00,
2013-08-23 21:01:00,55.6,47.1,29.80,NW,321,15.0,22.0,73,0.00,,---,0.00,VWS V14.01,2013-08-24 04:01:00,
2013-08-23 21:02:00,55.6,47.1,29.81,NW,323,24.0,24.0,73,0.00,,---,0.00,VWS V14.01,2013-08-24 04:02:00,
2013-08-23 21:03:00,55.5,47.0,29.80,NNW,327,12.0,24.0,73,0.00,,---,0.00,VWS V14.01,2013-08-24 04:03:00,
2013-08-23 21:08:00,55.5,47.0,29.81,NW,313,17.0,24.0,73,0.00,,---,0.00,VWS V14.01,2013-08-24 04:08:00,
2013-08-23 21:13:00,55.5,47.0,29.80,NNW,335,17.0,24.0,73,0.00,,---,0.00,VWS V14.01,2013-08-24 04:13:00,
2013-08-23 21:18:00,55.5,47.0,29.81,NW,321,15.0,24.0,73,0.00,,---,0.00,VWS V14.01,2013-08-24 04:18:00,
2013-08-23 21:23:00,55.5,47.0,29.81,NW,313,17.0,24.0,73,0.00,,---,0.00,VWS V14.01,2013-08-24 04:23:00,
2013-08-23 21:28:00,55.5,47.0,29.81,NW,313,16.0,17.0,73,0.00,,---,0.00,VWS V14.01,2013-08-24 04:28:00,
2013-08-23 21:30:00,55.5,47.0,29.81,West,268,17.0,24.0,73,0.00,,---,0.00,VWS V14.01,2013-08-24 04:30:00,
2013-08-23 21:33:00,55.5,47.0,29.81,NW,310,20.0,25.0,73,0.00,,---,0.00,VWS V14.01,2013-08-24 04:33:00,
2013-08-23 21:39:00,55.5,47.0,29.81,NW,314,16.0,25.0,73,0.00,,---,0.00,VWS V14.01,2013-08-24 04:39:00,
2013-08-23 21:44:00,55.5,47.0,29.81,NW,324,19.0,25.0,73,0.00,,---,0.00,VWS V14.01,2013-08-24 04:44:00,
2013-08-23 21:49:00,55.5,47.0,29.81,NNW,333,17.0,25.0,73,0.00,,---,0.00,VWS V14.01,2013-08-24 04:49:00,
2013-08-23 21:54:00,55.5,47.0,29.81,North,360,18.0,25.0,73,0.00,,---,0.00,VWS V14.01,2013-08-24 04:54:00,
2013-08-23 21:59:00,55.6,47.1,29.82,North,360,14.0,22.0,73,0.00,,---,0.00,VWS V14.01,2013-08-24 04:59:00,
2013-08-23 22:00:00,55.5,47.0,29.82,NW,319,22.0,25.0,73,0.00,,---,0.00,VWS V14.01,2013-08-24 05:00:00,
2013-08-23 22:04:00,55.6,47.1,29.81,West,280,13.0,25.0,73,0.00,,---,0.00,VWS V14.01,2013-08-24 05:04:00,
2013-08-23 22:09:00,55.6,47.1,29.82,NW,313,12.0,25.0,73,0.00,,---,0.00,VWS V14.01,2013-08-24 05:09:00,
2013-08-23 22:14:00,55.6,47.1,29.82,NW,319,12.0,25.0,73,0.00,,---,0.00,VWS V14.01,2013-08-24 05:14:00,
2013-08-23 22:19:00,55.5,47.0,29.82,WNW,303,13.0,25.0,73,0.00,,---,0.00,VWS V14.01,2013-08-24 05:19:00,
2013-08-23 22:24:00,55.5,47.0,29.82,NW,309,19.0,25.0,73,0.00,,---,0.00,VWS V14.01,2013-08-24 05:24:00,
2013-08-23 22:29:00,55.6,47.1,29.82,NW,311,15.0,17.0,73,0.00,,---,0.00,VWS V14.01,2013-08-24 05:29:00,
2013-08-23 22:30:00,55.6,47.1,29.82,NW,309,6.0,25.0,73,0.00,,---,0.00,VWS V14.01,2013-08-24 05:30:00,
2013-08-23 22:34:00,55.6,47.1,29.82,WNW,303,10.0,17.0,73,0.00,,---,0.00,VWS V14.01,2013-08-24 05:34:00,
2013-08-23 22:39:00,55.5,47.0,29.82,NW,313,11.0,19.0,73,0.00,,---,0.00,VWS V14.01,2013-08-24 05:39:00,
2013-08-23 22:44:00,55.5,47.0,29.82,NW,313,14.0,19.0,73,0.00,,---,0.00,VWS V14.01,2013-08-24 05:44:00,
2013-08-23 22:49:00,55.5,47.0,29.82,NW,308,19.0,19.0,73,0.00,,---,0.00,VWS V14.01,2013-08-24 05:49:00,
2013-08-23 22:54:00,55.5,47.0,29.82,NW,314,13.0,26.0,73,0.00,,---,0.00,VWS V14.01,2013-08-24 05:54:00,
2013-08-23 22:59:00,55.5,47.0,29.82,NW,313,11.0,17.0,73,0.00,,---,0.00,VWS V14.01,2013-08-24 05:59:00,
2013-08-23 23:00:00,55.5,47.0,29.82,NW,317,10.0,26.0,73,0.00,,---,0.00,VWS V14.01,2013-08-24 06:00:00,
2013-08-23 23:04:00,55.5,47.0,29.82,NW,315,13.0,22.0,73,0.00,,---,0.00,VWS V14.01,2013-08-24 06:04:00,
2013-08-23 23:09:00,55.4,46.9,29.82,NW,317,12.0,25.0,73,0.00,,---,0.00,VWS V14.01,2013-08-24 06:09:00,
2013-08-23 23:14:00,55.4,46.9,29.82,NW,311,15.0,25.0,73,0.00,,---,0.00,VWS V14.01,2013-08-24 06:14:00,
2013-08-23 23:19:00,55.4,46.9,29.82,NW,322,18.0,27.0,73,0.00,,---,0.00,VWS V14.01,2013-08-24 06:19:00,
2013-08-23 23:24:00,55.4,46.9,29.82,NW,306,12.0,27.0,73,0.00,,---,0.00,VWS V14.01,2013-08-24 06:24:00,
2013-08-23 23:29:00,55.4,46.9,29.82,NNW,331,18.0,18.0,73,0.00,,---,0.00,VWS V14.01,2013-08-24 06:29:00,
2013-08-23 23:30:00,55.4,46.9,29.82,NW,312,13.0,27.0,73,0.00,,---,0.00,VWS V14.01,2013-08-24 06:30:00,
2013-08-23 23:34:00,55.4,46.9,29.82,NW,320,13.0,22.0,73,0.00,,---,0.00,VWS V14.01,2013-08-24 06:34:00,
2013-08-23 23:39:00,55.4,46.9,29.82,NW,320,15.0,22.0,73,0.00,,---,0.00,VWS V14.01,2013-08-24 06:39:00,
2013-08-23 23:44:00,55.3,46.8,29.82,NW,325,11.0,22.0,73,0.00,,---,0.00,VWS V14.01,2013-08-24 06:44:00,
2013-08-23 23:49:00,55.3,46.8,29.83,NW,318,17.0,22.0,73,0.00,,---,0.00,VWS V14.01,2013-08-24 06:49:00,
2013-08-23 23:54:00,55.3,46.8,29.82,WNW,288,16.0,25.0,73,0.00,,---,0.00,VWS V14.01,2013-08-24 06:54:00,
2013-08-23 23:59:00,55.2,46.7,29.82,NW,317,16.0,19.0,73,0.00,,---,0.00,VWS V14.01,2013-08-24 06:59:00,